Weather History for KLLJ - August, 2013

Change the Weather History Date:

Friday, August 23, 2013

  Actual Average Record
Temperature  
Mean Temperature 70 °F 64 °F  
Max Temperature 87 °F 83 °F 96 °F (1969)
Min Temperature 52 °F 46 °F 35 °F (1960)
Degree Days  
Heating Degree Days 0 2  
Month to date heating degree days 5 24  
Since 1 June heating degree days 126 210  
Since 1 July heating degree days 5 45  
Cooling Degree Days 5 2  
Month to date cooling degree days 101 77  
Year to date cooling degree days 367 233  
Since 1 June cooling degree days 365 231  
Growing Degree Days 20 (Base 50)    
Moisture  
Dew Point 42 °F    
Average Humidity 47    
Maximum Humidity 77    
Minimum Humidity 16    
Precipitation  
Precipitation 0.01 in 0.03 in 0.60 in (1946)
Month to date precipitation 0.10 0.58  
Year to date precipitation 2.38 7.18  
Sea Level Pressure  
Sea Level Pressure 29.81 in    
Wind  
Wind Speed 4 mph (NNE)    
Max Wind Speed 23 mph    
Max Gust Speed 28 mph    
Visibility 8 miles    
Events Rain , Thunderstorm    
T = Trace of Precipitation, MM = Missing Value Source: NWS Daily Summary

Daily Weather History Graph

Daily Weather History Graph

Search for Another Location

Airport or City:

Trip Planner

Search our weather history database for the weather conditions in past years. The results will help you decide how hot, cold, wet, or windy it might be!

Date:

Astronomy

Aug. 23, 2013 Rise Set
Actual Time 6:49 AM MDT 8:28 PM MDT
Civil Twilight 6:18 AM MDT 8:59 PM MDT
Nautical Twilight 5:41 AM MDT 9:36 PM MDT
Astronomical Twilight 5:00 AM MDT 10:16 PM MDT
Moon 9:38 PM MDT (8/23) 9:58 AM MDT (8/23)
Length of Visible Light 14h 40m
Length of Day
13h 39m
Waning Gibbous, 91% of the Moon is Illuminated
Aug 23
Waning Gibbous
Aug 28
Last Quarter
Sep 5
New
Sep 12
First Quarter
Sep 19
Full

Hourly Weather History & Observations

Time (MDT) Temp. Dew Point Humidity Pressure Visibility Wind Dir Wind Speed Gust Speed Precip Events Conditions
12:55 AM 60.1 °F 46.9 °F 62% 29.88 in 10.0 mi Calm Calm - N/A   Clear
1:55 AM 57.9 °F 48.0 °F 70% 29.87 in 10.0 mi NNW 4.6 mph - N/A   Clear
2:55 AM 57.9 °F 44.1 °F 60% 29.86 in 10.0 mi Calm Calm - N/A   Clear
3:55 AM 60.1 °F 44.1 °F 55% 29.86 in 10.0 mi Calm Calm - N/A   Clear
4:55 AM 55.0 °F 48.0 °F 77% 29.85 in 10.0 mi Calm Calm - N/A   Clear
5:55 AM 53.1 °F 46.0 °F 77% 29.88 in 10.0 mi Calm Calm - N/A   Clear
6:55 AM 53.1 °F 46.0 °F 77% 29.88 in 10.0 mi South 3.5 mph - N/A   Partly Cloudy
7:55 AM 55.9 °F 46.0 °F 69% 29.90 in 10.0 mi Calm Calm - N/A   Scattered Clouds
8:55 AM 63.0 °F 44.1 °F 50% 29.90 in 10.0 mi Calm Calm - N/A   Partly Cloudy
9:55 AM 66.0 °F 45.0 °F 47% 29.88 in 10.0 mi South 4.6 mph - N/A   Clear
10:33 AM 68.0 °F 46.4 °F 46% 30.05 in 10.0 mi ESE 3.5 mph - N/A Thunderstorm Mostly Cloudy
10:55 AM 63.0 °F 51.1 °F 65% 29.86 in 5.0 mi Calm Calm - 0.01 in Rain , Thunderstorm Light Rain
11:33 AM 71.6 °F 46.4 °F 41% 30.02 in 10.0 mi Calm Calm - 0.00 in   Clear
11:55 AM 72.0 °F 51.1 °F 48% 29.83 in 10.0 mi NE 5.8 mph - 0.00 in   Clear
12:55 PM 75.0 °F 46.0 °F 36% 29.80 in 10.0 mi NNE 4.6 mph - N/A   Clear
1:55 PM 79.0 °F 46.0 °F 31% 29.75 in 10.0 mi NNE 5.8 mph - N/A   Clear
2:55 PM 82.0 °F 46.0 °F 28% 29.71 in 10.0 mi NNE 4.6 mph - N/A   Partly Cloudy
3:55 PM 82.9 °F 46.0 °F 27% 29.67 in 10.0 mi NE 5.8 mph - N/A   Partly Cloudy
4:55 PM 86.0 °F 37.0 °F 18% 29.67 in 10.0 mi Calm Calm - N/A   Clear
5:55 PM 84.0 °F 34.0 °F 17% 29.67 in 5.0 mi West 13.8 mph - N/A   Haze
6:55 PM 82.0 °F 33.1 °F 17% 29.68 in 4.0 mi West 16.1 mph 24.2 mph N/A   Haze
7:55 PM 79.0 °F 32.0 °F 18% 29.69 in 4.0 mi West 15.0 mph 21.9 mph N/A   Haze
8:55 PM 73.0 °F 35.1 °F 25% 29.72 in 5.0 mi East 3.5 mph - N/A   Haze
9:55 PM 73.0 °F 30.0 °F 20% 29.73 in 6.0 mi WNW 9.2 mph - N/A   Haze
10:55 PM 69.1 °F 30.9 °F 24% 29.77 in 6.0 mi SSE 3.5 mph - N/A   Haze
11:55 PM 64.9 °F 34.0 °F 32% 29.76 in 5.0 mi SE 5.8 mph - N/A   Haze